FIN165 EFHK-EFOU

Flight info

Callsign FIN165
Flight time 1h 0m
Altitude 38000
Route TEVRU4N TEVRU Y75 SUVIB SUVIB5D
Aircraft A319/M-SDE3FGHIRWY/LB1

Departure

Time 2026-04-30 10:28
Airport Helsinki Vantaa Airport (EFHK)

Arrival

Time 2026-04-30 11:28
Airport Oulu Airport (EFOU)
Time Latitude Longitude Altitude Speed Heading
2026-04-30 10:04 60.31941 24.96687 194 ft 0 kts 139°
2026-04-30 10:16 60.31941 24.96686 167 ft 0 kts 139°
2026-04-30 10:16 60.31942 24.96686 167 ft 0 kts 139°
2026-04-30 10:18 60.31957 24.96659 167 ft 4 kts 141°
2026-04-30 10:19 60.31996 24.96633 167 ft 1 kts 227°
2026-04-30 10:21 60.31994 24.96629 167 ft 2 kts 227°
2026-04-30 10:21 60.31974 24.96585 167 ft 7 kts 228°
2026-04-30 10:21 60.31930 24.96489 167 ft 12 kts 226°
2026-04-30 10:22 60.31875 24.96370 167 ft 10 kts 229°
2026-04-30 10:22 60.31852 24.96229 167 ft 12 kts 272°
2026-04-30 10:22 60.31892 24.96091 167 ft 12 kts 317°
2026-04-30 10:22 60.31953 24.95978 171 ft 10 kts 318°
2026-04-30 10:23 60.32001 24.95892 173 ft 9 kts 318°
2026-04-30 10:23 60.32047 24.95809 174 ft 9 kts 319°
2026-04-30 10:23 60.32108 24.95693 173 ft 16 kts 316°
2026-04-30 10:23 60.32203 24.95518 174 ft 20 kts 319°
2026-04-30 10:24 60.32311 24.95317 176 ft 22 kts 321°
2026-04-30 10:24 60.32450 24.95199 179 ft 22 kts 342°
2026-04-30 10:24 60.32597 24.95107 180 ft 23 kts 342°
2026-04-30 10:24 60.32747 24.95005 178 ft 15 kts 342°
2026-04-30 10:25 60.32843 24.94946 175 ft 16 kts 342°
2026-04-30 10:25 60.32929 24.94843 177 ft 10 kts 322°
2026-04-30 10:25 60.32982 24.94746 179 ft 10 kts 316°
2026-04-30 10:25 60.33021 24.94671 181 ft 6 kts 317°
2026-04-30 10:26 60.33044 24.94629 183 ft 3 kts 317°
2026-04-30 10:26 60.33051 24.94616 184 ft 0 kts 317°
2026-04-30 10:26 60.33057 24.94606 196 ft 2 kts 317°
2026-04-30 10:26 60.33071 24.94580 197 ft 4 kts 318°
2026-04-30 10:27 60.33105 24.94519 189 ft 9 kts 318°
2026-04-30 10:27 60.33105 24.94372 195 ft 12 kts 237°
2026-04-30 10:27 60.33075 24.94307 195 ft 5 kts 225°
2026-04-30 10:27 60.32842 24.93793 182 ft 92 kts 228°
2026-04-30 10:28 60.32251 24.92490 170 ft 157 kts 228°
2026-04-30 10:28 60.31486 24.90789 752 ft 164 kts 230°
2026-04-30 10:28 60.30719 24.89053 1549 ft 170 kts 236°
2026-04-30 10:28 60.30293 24.86738 2110 ft 188 kts 271°
2026-04-30 10:29 60.30801 24.84176 2547 ft 216 kts 316°
2026-04-30 10:29 60.32180 24.82819 3283 ft 237 kts 348°
2026-04-30 10:29 60.33855 24.82518 4123 ft 244 kts 360°
2026-04-30 10:29 60.35537 24.82602 5444 ft 243 kts
2026-04-30 10:30 60.37228 24.82762 6630 ft 244 kts
2026-04-30 10:30 60.38947 24.82886 7638 ft 249 kts
2026-04-30 10:30 60.40677 24.82945 8744 ft 249 kts
2026-04-30 10:30 60.42419 24.82963 9819 ft 252 kts 360°
2026-04-30 10:31 60.44186 24.82966 10742 ft 259 kts 360°
2026-04-30 10:31 60.46077 24.82956 11106 ft 284 kts 360°
2026-04-30 10:31 60.48125 24.82943 11503 ft 305 kts 360°
2026-04-30 10:31 60.50326 24.82949 11812 ft 327 kts
2026-04-30 10:32 60.52644 24.83061 12342 ft 339 kts
2026-04-30 10:32 60.55011 24.83242 13200 ft 341 kts
2026-04-30 10:32 60.57388 24.83448 14045 ft 343 kts
2026-04-30 10:32 60.59786 24.83659 14775 ft 346 kts
2026-04-30 10:33 60.62199 24.83859 15532 ft 348 kts
2026-04-30 10:33 60.64630 24.84026 16302 ft 350 kts
2026-04-30 10:33 60.67073 24.84170 17071 ft 351 kts
2026-04-30 10:33 60.69524 24.84308 17812 ft 353 kts
2026-04-30 10:34 60.71985 24.84454 18515 ft 355 kts
2026-04-30 10:34 60.74429 24.84607 19110 ft 356 kts
2026-04-30 10:34 60.76915 24.84768 19702 ft 358 kts
2026-04-30 10:34 60.79410 24.84932 20289 ft 360 kts
2026-04-30 10:35 60.81918 24.85105 20861 ft 362 kts
2026-04-30 10:35 60.84439 24.85284 21449 ft 363 kts
2026-04-30 10:35 60.86967 24.85464 21996 ft 364 kts
2026-04-30 10:35 60.89510 24.85640 22526 ft 366 kts
2026-04-30 10:36 60.92062 24.85815 23048 ft 368 kts
2026-04-30 10:36 60.94632 24.85990 23558 ft 370 kts
2026-04-30 10:36 60.97208 24.86164 23966 ft 372 kts
2026-04-30 10:36 60.99782 24.86340 24335 ft 375 kts
2026-04-30 10:37 61.02399 24.86520 24712 ft 377 kts
2026-04-30 10:37 61.05030 24.86701 25118 ft 379 kts
2026-04-30 10:37 61.07670 24.86885 25533 ft 379 kts
2026-04-30 10:37 61.10310 24.87076 25940 ft 380 kts
2026-04-30 10:38 61.12960 24.87266 26336 ft 381 kts
2026-04-30 10:38 61.15614 24.87451 26757 ft 382 kts
2026-04-30 10:38 61.18272 24.87634 27165 ft 383 kts
2026-04-30 10:38 61.20937 24.87812 27536 ft 383 kts
2026-04-30 10:39 61.23602 24.87994 27937 ft 383 kts
2026-04-30 10:39 61.26260 24.88183 28480 ft 380 kts
2026-04-30 10:39 61.28891 24.88375 29059 ft 377 kts
2026-04-30 10:39 61.31502 24.88566 29644 ft 373 kts
2026-04-30 10:40 61.34085 24.88750 30246 ft 370 kts
2026-04-30 10:40 61.36617 24.88924 30736 ft 367 kts
2026-04-30 10:40 61.39162 24.89098 31204 ft 365 kts
2026-04-30 10:40 61.41696 24.89273 31657 ft 363 kts
2026-04-30 10:41 61.44218 24.89450 32112 ft 362 kts
2026-04-30 10:41 61.46726 24.89627 32598 ft 360 kts
2026-04-30 10:41 61.49223 24.89804 33087 ft 358 kts
2026-04-30 10:41 61.51701 24.89980 33556 ft 356 kts
2026-04-30 10:42 61.54178 24.90155 34016 ft 354 kts
2026-04-30 10:42 61.56637 24.90328 34418 ft 353 kts
2026-04-30 10:42 61.59101 24.90499 34707 ft 355 kts
2026-04-30 10:42 61.61582 24.90673 34963 ft 358 kts
2026-04-30 10:43 61.64079 24.90857 35218 ft 360 kts
2026-04-30 10:43 61.66562 24.91041 35459 ft 363 kts
2026-04-30 10:43 61.69097 24.91224 35697 ft 365 kts
2026-04-30 10:43 61.71598 24.91403 35925 ft 368 kts
2026-04-30 10:44 61.74166 24.91587 36076 ft 371 kts
2026-04-30 10:44 61.76756 24.91771 36282 ft 373 kts
2026-04-30 10:44 61.79358 24.91959 36534 ft 375 kts
2026-04-30 10:44 61.81977 24.92150 36764 ft 377 kts
2026-04-30 10:45 61.84609 24.92340 36975 ft 379 kts
2026-04-30 10:45 61.87256 24.92533 37189 ft 381 kts
2026-04-30 10:45 61.89917 24.92730 37404 ft 383 kts
2026-04-30 10:45 61.92589 24.92925 37607 ft 385 kts
2026-04-30 10:46 61.95272 24.93118 37811 ft 387 kts
2026-04-30 10:46 61.97978 24.93312 38016 ft 389 kts
2026-04-30 10:46 62.00693 24.93509 38149 ft 391 kts
2026-04-30 10:46 62.03418 24.93710 38170 ft 392 kts
2026-04-30 10:47 62.08848 24.94114 38164 ft 392 kts
2026-04-30 10:47 62.14312 24.94525 38162 ft 393 kts
2026-04-30 10:48 62.19788 24.94933 38163 ft 394 kts
2026-04-30 10:48 62.25267 24.95343 38161 ft 394 kts
2026-04-30 10:49 62.30749 24.95745 38164 ft 394 kts
2026-04-30 10:49 62.36186 24.96153 38159 ft 380 kts
2026-04-30 10:50 62.38785 24.96347 38156 ft 365 kts
2026-04-30 10:50 62.41270 24.96533 38156 ft 350 kts
2026-04-30 10:50 62.43634 24.96707 38156 ft 339 kts
2026-04-30 10:50 62.45973 24.96882 38157 ft 334 kts
2026-04-30 10:51 62.50608 24.97234 38148 ft 332 kts
2026-04-30 10:51 62.55222 24.97588 38152 ft 331 kts
2026-04-30 10:52 62.59830 24.97951 38150 ft 331 kts
2026-04-30 10:52 62.64436 24.98323 38161 ft 331 kts
2026-04-30 10:53 62.69045 24.98671 38163 ft 331 kts
2026-04-30 10:53 62.73657 24.99015 38159 ft 331 kts
2026-04-30 10:54 62.78253 24.99361 38132 ft 334 kts
2026-04-30 10:54 62.80593 24.99538 37790 ft 334 kts
2026-04-30 10:54 62.82895 24.99717 37711 ft 328 kts
2026-04-30 10:55 62.85167 24.99900 37604 ft 326 kts
2026-04-30 10:55 62.87449 25.00083 37041 ft 329 kts
2026-04-30 10:55 62.89742 25.00264 36466 ft 329 kts
2026-04-30 10:55 62.92033 25.00446 35906 ft 329 kts
2026-04-30 10:56 62.94316 25.00627 35362 ft 329 kts
2026-04-30 10:56 62.96601 25.00802 34825 ft 327 kts
2026-04-30 10:56 62.98867 25.00971 34300 ft 325 kts
2026-04-30 10:56 63.01092 25.01140 33714 ft 323 kts
2026-04-30 10:57 63.03333 25.01314 33115 ft 320 kts
2026-04-30 10:57 63.05557 25.01490 32525 ft 318 kts
2026-04-30 10:57 63.07767 25.01666 31953 ft 316 kts
2026-04-30 10:57 63.09964 25.01840 31408 ft 314 kts
2026-04-30 10:58 63.12142 25.02013 30858 ft 313 kts
2026-04-30 10:58 63.14313 25.02184 30314 ft 311 kts
2026-04-30 10:58 63.16441 25.02349 29696 ft 309 kts 360°
2026-04-30 10:58 63.18585 25.02517 29070 ft 307 kts
2026-04-30 10:59 63.20717 25.02691 28458 ft 306 kts
2026-04-30 10:59 63.22849 25.02865 27857 ft 306 kts
2026-04-30 10:59 63.24967 25.03031 27342 ft 303 kts 360°
2026-04-30 10:59 63.27064 25.03195 26895 ft 300 kts 360°
2026-04-30 11:00 63.29144 25.03358 26444 ft 298 kts 360°
2026-04-30 11:00 63.31202 25.03522 26017 ft 295 kts
2026-04-30 11:00 63.33242 25.03691 25593 ft 292 kts
2026-04-30 11:00 63.35263 25.03858 25172 ft 289 kts
2026-04-30 11:01 63.37261 25.04020 24757 ft 286 kts
2026-04-30 11:01 63.38571 25.04126 24491 ft 284 kts
2026-04-30 11:01 63.40534 25.04283 24086 ft 281 kts
2026-04-30 11:01 63.42478 25.04436 23706 ft 278 kts 360°
2026-04-30 11:02 63.44412 25.04587 23232 ft 276 kts 360°
2026-04-30 11:02 63.46328 25.04743 22758 ft 275 kts 360°
2026-04-30 11:02 63.48237 25.04907 22301 ft 274 kts 360°
2026-04-30 11:02 63.50753 25.05127 21700 ft 272 kts 360°
2026-04-30 11:03 63.52031 25.05239 21404 ft 272 kts 360°
2026-04-30 11:03 63.53899 25.05396 20961 ft 272 kts 360°
2026-04-30 11:03 63.55784 25.05552 20529 ft 271 kts 360°
2026-04-30 11:04 63.59557 25.05871 19676 ft 271 kts 359°
2026-04-30 11:04 63.61440 25.06031 19262 ft 271 kts 359°
2026-04-30 11:04 63.63327 25.06176 18851 ft 271 kts 359°
2026-04-30 11:04 63.65211 25.06314 18444 ft 271 kts 359°
2026-04-30 11:05 63.67098 25.06455 17987 ft 272 kts 359°
2026-04-30 11:05 63.68989 25.06604 17525 ft 272 kts 359°
2026-04-30 11:05 63.70883 25.06755 17071 ft 272 kts 359°
2026-04-30 11:05 63.72776 25.06910 16620 ft 273 kts 359°
2026-04-30 11:06 63.74677 25.07068 16179 ft 274 kts 359°
2026-04-30 11:06 63.76582 25.07227 15769 ft 274 kts 360°
2026-04-30 11:06 63.78490 25.07386 15345 ft 275 kts 360°
2026-04-30 11:06 63.80403 25.07545 14922 ft 275 kts 360°
2026-04-30 11:07 63.82317 25.07706 14500 ft 276 kts
2026-04-30 11:07 63.84236 25.07867 14089 ft 276 kts
2026-04-30 11:07 63.86133 25.08026 13652 ft 276 kts
2026-04-30 11:07 63.88052 25.08186 13201 ft 276 kts
2026-04-30 11:08 63.89973 25.08340 12747 ft 276 kts
2026-04-30 11:08 63.91891 25.08494 12302 ft 275 kts
2026-04-30 11:08 63.93803 25.08657 11863 ft 275 kts
2026-04-30 11:08 63.95711 25.08823 11434 ft 274 kts
2026-04-30 11:09 63.97614 25.08984 11006 ft 273 kts
2026-04-30 11:09 63.99509 25.09139 10585 ft 272 kts
2026-04-30 11:09 64.01395 25.09293 10204 ft 270 kts
2026-04-30 11:09 64.03247 25.09447 10000 ft 260 kts 359°
2026-04-30 11:10 64.05018 25.09600 9854 ft 249 kts 359°
2026-04-30 11:10 64.06714 25.09748 9721 ft 239 kts 359°
2026-04-30 11:10 64.08341 25.09891 9587 ft 229 kts 359°
2026-04-30 11:10 64.09902 25.10026 9471 ft 219 kts 359°
2026-04-30 11:11 64.11392 25.10152 9338 ft 209 kts 359°
2026-04-30 11:11 64.12798 25.10270 9207 ft 200 kts 359°
2026-04-30 11:11 64.14172 25.10386 9070 ft 196 kts 359°
2026-04-30 11:11 64.15530 25.10499 8946 ft 195 kts 359°
2026-04-30 11:12 64.16883 25.10613 8811 ft 194 kts 359°
2026-04-30 11:12 64.18233 25.10722 8689 ft 194 kts 359°
2026-04-30 11:12 64.19617 25.10832 8574 ft 214 kts 359°
2026-04-30 11:12 64.21164 25.10953 8422 ft 227 kts 359°
2026-04-30 11:13 64.22761 25.11090 8298 ft 230 kts 360°
2026-04-30 11:13 64.24360 25.11234 8170 ft 231 kts 360°
2026-04-30 11:13 64.25946 25.11375 8043 ft 230 kts 360°
2026-04-30 11:13 64.27548 25.11512 7915 ft 230 kts 360°
2026-04-30 11:14 64.29148 25.11650 7787 ft 229 kts 359°
2026-04-30 11:14 64.30745 25.11785 7662 ft 229 kts 359°
2026-04-30 11:14 64.32336 25.11920 7533 ft 228 kts 359°
2026-04-30 11:14 64.33923 25.12058 7407 ft 228 kts 359°
2026-04-30 11:15 64.35507 25.12197 7282 ft 228 kts 359°
2026-04-30 11:15 64.37091 25.12334 7154 ft 228 kts 360°
2026-04-30 11:15 64.38676 25.12473 7027 ft 227 kts 360°
2026-04-30 11:15 64.40253 25.12620 6943 ft 225 kts
2026-04-30 11:16 64.41820 25.13062 7039 ft 229 kts
2026-04-30 11:16 64.43369 25.13982 7053 ft 231 kts 14°
2026-04-30 11:16 64.44864 25.15378 6926 ft 232 kts 21°
2026-04-30 11:16 64.46255 25.17211 6804 ft 234 kts 27°
2026-04-30 11:17 64.47633 25.19189 6676 ft 233 kts 26°
2026-04-30 11:17 64.49018 25.21158 6553 ft 233 kts 26°
2026-04-30 11:17 64.50402 25.23121 6421 ft 233 kts 26°
2026-04-30 11:17 64.51785 25.25082 6282 ft 232 kts 26°
2026-04-30 11:18 64.53163 25.27040 6156 ft 232 kts 26°
2026-04-30 11:18 64.55912 25.30966 5892 ft 231 kts 26°
2026-04-30 11:18 64.57279 25.32924 5760 ft 231 kts 26°
2026-04-30 11:19 64.58651 25.34894 5631 ft 231 kts 27°
2026-04-30 11:19 64.60020 25.36861 5502 ft 231 kts 26°
2026-04-30 11:19 64.61371 25.38796 5375 ft 231 kts 26°
2026-04-30 11:19 64.62738 25.40752 5246 ft 230 kts 26°
2026-04-30 11:20 64.64098 25.42709 5119 ft 229 kts 26°
2026-04-30 11:20 64.65455 25.44665 4993 ft 229 kts 26°
2026-04-30 11:20 64.66812 25.46619 4861 ft 229 kts 26°
2026-04-30 11:20 64.68168 25.48576 4734 ft 229 kts 27°
2026-04-30 11:21 64.69508 25.50521 4594 ft 222 kts 27°
2026-04-30 11:21 64.70784 25.52388 4476 ft 211 kts 27°
2026-04-30 11:21 64.71996 25.54162 4344 ft 201 kts 27°
2026-04-30 11:21 64.73178 25.55881 4217 ft 199 kts 27°
2026-04-30 11:22 64.74352 25.57587 4082 ft 199 kts 27°
2026-04-30 11:22 64.75510 25.59270 3956 ft 198 kts 27°
2026-04-30 11:22 64.76679 25.60971 3826 ft 198 kts 27°
2026-04-30 11:22 64.77849 25.62655 3698 ft 197 kts 26°
2026-04-30 11:23 64.79022 25.64320 3575 ft 197 kts 26°
2026-04-30 11:23 64.80190 25.65977 3445 ft 196 kts 27°
2026-04-30 11:23 64.82576 25.69049 3177 ft 192 kts
2026-04-30 11:24 64.83867 25.68836 3090 ft 183 kts 339°
2026-04-30 11:24 64.84855 25.67142 2943 ft 173 kts 310°
2026-04-30 11:24 64.85476 25.64787 2811 ft 165 kts 304°
2026-04-30 11:25 64.86610 25.60378 2553 ft 151 kts 304°
2026-04-30 11:25 64.87141 25.58315 2407 ft 143 kts 304°
2026-04-30 11:25 64.88086 25.54638 1975 ft 123 kts 305°
2026-04-30 11:26 64.88946 25.51303 1601 ft 118 kts 304°
2026-04-30 11:26 64.89373 25.49645 1427 ft 118 kts 304°
2026-04-30 11:26 64.89796 25.48001 1243 ft 117 kts 303°
2026-04-30 11:27 64.90222 25.46349 1067 ft 118 kts 302°
2026-04-30 11:27 64.90647 25.44718 885 ft 117 kts 302°
2026-04-30 11:27 64.91068 25.43091 722 ft 116 kts 299°
2026-04-30 11:27 64.91473 25.41452 539 ft 116 kts 299°
2026-04-30 11:28 64.92303 25.38214 149 ft 115 kts 300°
2026-04-30 11:28 64.92703 25.36647 49 ft 100 kts 300°
2026-04-30 11:28 64.92982 25.35552 52 ft 49 kts 301°
2026-04-30 11:29 64.93068 25.35283 54 ft 12 kts 323°
2026-04-30 11:29 64.93147 25.35204 52 ft 12 kts 353°
2026-04-30 11:29 64.93221 25.35388 51 ft 9 kts 114°
2026-04-30 11:30 64.93134 25.35729 49 ft 17 kts 121°
2026-04-30 11:30 64.93075 25.35958 49 ft 16 kts 121°
2026-04-30 11:30 64.93010 25.36211 47 ft 20 kts 121°
2026-04-30 11:31 64.92929 25.36533 50 ft 25 kts 120°
2026-04-30 11:31 64.92855 25.36823 51 ft 17 kts 121°
2026-04-30 11:31 64.92789 25.37074 49 ft 13 kts 120°
2026-04-30 11:31 64.92748 25.37239 49 ft 1 kts 120°
2026-04-30 11:32 64.92749 25.37295 51 ft 6 kts 66°
2026-04-30 11:32 64.92781 25.37329 51 ft 5 kts 31°
2026-04-30 11:32 64.92797 25.37352 51 ft 0 kts 31°
2026-04-30 11:33 64.92802 25.37360 51 ft 0 kts 31°